TimeMST,TemperatureF,Dew PointF,Humidity,Sea Level PressureIn,VisibilityMPH,Wind Direction,Wind SpeedMPH,Gust SpeedMPH,PrecipitationIn,Events,Conditions,WindDirDegrees,DateUTC
12:53 AM,66.0,37.0,34,29.78,10.0,West,4.6,-,N/A,,Clear,280,2012-10-17 07:53:00
1:53 AM,64.9,36.0,34,29.80,10.0,West,3.5,-,N/A,,Clear,270,2012-10-17 08:53:00
2:53 AM,63.0,36.0,37,29.82,10.0,West,4.6,-,N/A,,Clear,270,2012-10-17 09:53:00
3:53 AM,64.0,39.0,40,29.81,10.0,West,4.6,-,N/A,,Clear,260,2012-10-17 10:53:00
4:53 AM,63.0,39.9,43,29.83,10.0,WSW,4.6,-,N/A,,Clear,250,2012-10-17 11:53:00
5:53 AM,61.0,39.0,44,29.86,10.0,WNW,5.8,-,N/A,,Clear,290,2012-10-17 12:53:00
6:53 AM,60.1,35.1,39,29.87,10.0,Variable,3.5,-,N/A,,Clear,0,2012-10-17 13:53:00
7:53 AM,62.1,34.0,35,29.89,10.0,SW,3.5,-,N/A,,Clear,220,2012-10-17 14:53:00
8:53 AM,64.9,28.9,26,29.90,10.0,WNW,9.2,-,N/A,,Clear,300,2012-10-17 15:53:00
9:53 AM,66.9,17.1,15,29.91,10.0,WNW,8.1,17.3,N/A,,Clear,300,2012-10-17 16:53:00
10:53 AM,69.1,21.0,16,29.92,10.0,North,8.1,-,N/A,,Clear,10,2012-10-17 17:53:00
11:53 AM,70.0,21.9,16,29.92,10.0,North,6.9,-,N/A,,Clear,10,2012-10-17 18:53:00
12:53 PM,72.0,21.0,15,29.89,10.0,North,5.8,-,N/A,,Clear,350,2012-10-17 19:53:00
1:53 PM,72.0,19.0,13,29.87,10.0,Calm,Calm,-,N/A,,Clear,0,2012-10-17 20:53:00
2:53 PM,73.9,15.1,11,29.86,10.0,NNW,5.8,-,N/A,,Clear,340,2012-10-17 21:53:00
3:53 PM,75.0,15.1,10,29.86,10.0,Variable,3.5,-,N/A,,Clear,0,2012-10-17 22:53:00
4:53 PM,73.9,14.0,10,29.86,10.0,ENE,3.5,-,N/A,,Clear,60,2012-10-17 23:53:00
5:53 PM,66.9,21.9,18,29.88,10.0,Calm,Calm,-,N/A,,Clear,0,2012-10-18 00:53:00
6:53 PM,66.0,28.9,25,29.91,10.0,Calm,Calm,-,N/A,,Clear,0,2012-10-18 01:53:00
7:53 PM,63.0,28.9,28,29.94,10.0,West,4.6,-,N/A,,Clear,270,2012-10-18 02:53:00
8:53 PM,66.0,10.9,12,29.95,10.0,WNW,8.1,17.3,N/A,,Clear,300,2012-10-18 03:53:00
9:53 PM,63.0,7.0,11,29.97,10.0,West,8.1,-,N/A,,Clear,280,2012-10-18 04:53:00
10:53 PM,62.1,5.0,10,29.98,10.0,WSW,5.8,-,N/A,,Clear,240,2012-10-18 05:53:00
11:53 PM,62.1,3.0,9,29.99,10.0,Variable,5.8,-,N/A,,Clear,0,2012-10-18 06:53:00